Location: Buch
(49.7331°N, 12.1098°E)
Time: 03:41:17
(UTC+00:00)

Landsat 7 - Pass Details

Date: 01 October 2021
Orbit: 701 x 703 km, 98.0° (Epoch: 24 October)

Event Time Altitude Azimuth Distance (km) Brightness Sun altitude
Exits shadow 21:12:28 14° 290° (WNW) 1,904 6.5 -38.4°
Drops below altitude 10° 21:14:02 10° 309° (NW) 2,179 7.0 -38.5°
Sets 21:17:14 0° 331° (NNW) 3,103 8.1 -38.8°
